Weather in Fargo

United States     46°52′36″N   96°48′40″W
temp.,
°C
wind,
m/s
gust,
m/s
humid.,
%
clouds,
%
prec.,
mm/h
press.,
hPa
HPBL,
m
24 may, tue
tue2401:00+11sw398791 2.4 1021317
04:00+8s34875 0.0 102256
07:00+8s35884 0.0 1022137
10:00+14s45655 0.0 1022749
13:00+18s585018 0.1 10211846
16:00+18s4646100 0.0 10202075
19:00+16se3567100 0.2 1020181
22:00+11ese4778100 0.1 102098
25 may, wed
wed2501:00+10se3883100 0.1 1021133
04:00+9se3781100 0.0 1020139
07:00+10se3879100 0.0 1020213
10:00+14se4766100 0.0 1018537
13:00+16se5554100 0.1 10161705
16:00+15ese556179 0.3 10151072
19:00+13ese55665 0.3 1014856
22:00+7se35891 0.0 101495
26 may, thu
thu2601:00+6ssw22910 0.0 101522
04:00+5ssw11925 0.0 101411
07:00+7sse11874 0.0 101562
10:00+11se2270100 0.0 1015509
13:00+15s22607 0.0 1014787
16:00+19s335422 0.0 10131288
19:00+19sse125566 0.0 10131325
22:00+14se447514 0.0 101450
27 may, fri
fri2701:00+12sse34825 0.0 101463
04:00+11s47895 0.0 1015105
07:00+11s48873 0.0 1015197
10:00+18ssw45693 0.0 1014526
13:00+23s55575 0.0 10131134
16:00+24s444826 0.0 10111995
19:00+23sse585845 0.0 1010462
22:00+17sse5127625 0.0 1010247
28 may, sat
sat2801:00+16sse61573100 0.0 1010385
04:00+15sse71671100 0.0 1007422
07:00+14sse6167649 0.0 1007467
10:00+19sse9156316 0.1 1005811
13:00+22s9125682 0.2 10041565
16:00+22sse71265100 0.0 1002912
19:00+21sse61370100 0.1 1000534
22:00+19se61580100 1.0 1000429